Regional Weather Roundup
Issued by NWS

Home | Current Version | Previous Version | Graphics & Text | Print | Product List | Glossary On
Versions: 1 2 3 4 5 6 7 8 9 10 11 12 13 14 15 16 17 18 19 20 21 22 23 24 25 26 27 28 29 30 31 32 33 34 35 36 37 38 39 40 41 42 43 44 45 46 47 48 49 50
441
ASUS43 KMPX 201501
RWRMN
WEATHER ROUNDUP FOR MINNESOTA
NATIONAL WEATHER SERVICE TWIN CITIES/CHANHASSEN MN
900 AM CST FRI JAN 20 2017


NOTE: "FAIR" INDICATES FEW OR NO CLOUDS BELOW 12,000 FEET WITH NO
SIGNIFICANT WEATHER AND/OR OBSTRUCTIONS TO VISIBILITY. N/A MEANS
CURRENT SKY AND/OR WEATHER CONDITIONS ARE NOT AVAILABLE.

MNZ060>063-068>070-201600-
   Twin Cities Metro

CITY           SKY/WX    TMP DP  RH WIND       PRES   REMARKS
TWIN CITIES    DRIZZLE   35  33  92 SE8       29.62S FOG     WCI  29
ST PAUL        CLOUDY    35  35 100 SE7       29.63F FOG     WCI  29
CRYSTAL        CLOUDY    35  33  92 SE6       29.61S FOG     WCI  30
LAKEVILLE      CLOUDY    34  34 100 SE5       29.60F FOG     WCI  30
EDEN PRAIRIE   CLOUDY    35  34  96 SE7       29.60S FOG     WCI  29
SOUTH ST PAUL  CLOUDY    36  35  99 SE5       29.62F FOG
LAKE ELMO      MIX PCPN  36  36 100 E5        29.63F
$$
MNZ001>005-007-008-013>017-022>024-027-028-201600-
   Northwest Minnesota

CITY           SKY/WX    TMP DP  RH WIND       PRES   REMARKS
BEMIDJI        FOG       33  33 100 E9        29.57S VSB 1   WCI  25
HALLOCK        CLOUDY    36  34  93 SE10      29.52R FOG
ROSEAU         HAZE      36  30  80 SE9       29.56S VSB 1
WARROAD        CLOUDY    36  30  80 SE8       29.57S FOG
THIEF RVR FALL CLOUDY    34  34 100 SE14      29.54F FOG     WCI  25
CROOKSTON      CLOUDY    36  34  93 SE12      29.53F FOG
FOSSTON        CLOUDY    34  34 100 SE3       29.54F FOG
DETROIT LAKES  CLOUDY    34  34 100 SE10G16   29.54S FOG     WCI  26
MOORHEAD       CLOUDY    34  34 100 SE7       29.52S FOG     WCI  28
PARK RAPIDS    MIX PCPN  34  32  92 SE8       29.55S FOG     WCI  27
MAHNOMEN       CLOUDY    34  33  95 SE8       29.52F WCI  27
$$
MNZ006-009>011-018-025>026-201600-
   North Central Minnesota

CITY           SKY/WX    TMP DP  RH WIND       PRES   REMARKS
BAUDETTE       CLOUDY    34  34 100 SE7       29.58S FOG     WCI  28
FLAG ISLAND    FOG       34  34 100 SE6       29.57S VSB 3/4 WCI  29
INTL FALLS     CLOUDY    34  33  96 SE6       29.61S FOG     WCI  29
WASKISH        CLOUDY    36  34  93 SE7       29.59S FOG
BIG FORK       CLOUDY    34  34 100 SE3       29.62S FOG
LONGVILLE      FOG       34  34 100 CALM      29.59S VSB 1/2
GRAND RAPIDS   MIX PCPN  33  33 100 SE6       29.64R VSB 1/2 WCI  28
CRANE LAKE     CLOUDY    32  30  93 CALM      29.67S FOG
ORR            CLOUDY    34  30  86 CALM      29.62S FOG
COOK           CLOUDY    32  30  93 E3        29.65S FOG
WALKER         CLOUDY    32  32  99 E5        29.58S FOG     WCI  28
$$
MNZ012-019>021-037-201600-
   Northeast Minnesota

CITY           SKY/WX    TMP DP  RH WIND       PRES   REMARKS
DULUTH         DRIZZLE   35  34  96 E9        29.65S FOG     WCI  28
ELY            CLOUDY    21  21 100 CALM      29.66S FOG
HIBBING        CLOUDY    31  31 100 E5        29.64R FOG     WCI  26
EVELETH        CLOUDY    32  32  99 NE3       29.66S FOG
DULUTH HARBOR  MIX PCPN  34  34 100 NE8       29.68F VSB 1/2 WCI  27
TWO HARBORS    HAZE      36  30  80 NE3       29.66S VSB 1/2
SILVER BAY     CLOUDY    32  32 100 CALM      29.67S FOG
GRAND MARAIS     N/A     32  32 100 CALM      29.72R
G MARAIS ARPRT CLOUDY    30  27  86 CALM      29.68R FOG
$$
MNZ029>031-032-039>041-046>048-054>057-064-201600-
   West Central Minnesota

CITY           SKY/WX    TMP DP  RH WIND       PRES   REMARKS
FERGUS FALLS   CLOUDY    34  34 100 SE8       29.57S FOG     WCI  27
WHEATON        FOG       41  41 100 SE9       29.54S VSB 3/4
MORRIS         FOG       34  34 100 SE9       29.52S VSB 1/2 WCI  26
ALEXANDRIA     CLOUDY    33  33 100 E9        29.54F FOG     WCI  25
ELBOW LAKE     CLOUDY    33  33 100 SE7       29.53S FOG     WCI  27
WADENA         FOG       32  32 100 E7        29.55F VSB 1   WCI  26
GLENWOOD       FOG       34  34 100 E9        29.55S VSB<1/4 WCI  26
APPLETON       CLOUDY    36  34  93 SE6       29.53S FOG
BENSON         CLOUDY    36  32  87 S10         N/A
ORTONVILLE     CLOUDY    34  32  93 CALM      29.51F FOG
MADISON        CLOUDY    36  36 100 SE8       29.51F FOG
WILLMAR        FOG       34  34 100 SE9       29.57R VSB 3/4 WCI  26
$$
MNZ033>034-036-042>043-049>051-058-059-201600-
   Central Minnesota

CITY           SKY/WX    TMP DP  RH WIND       PRES   REMARKS
ST CLOUD       CLOUDY    34  34 100 SE6       29.58F FOG     WCI  29
SAUK CENTRE    CLOUDY    32  32 100 E6        29.56S FOG     WCI  27
PAYNESVILLE    FOG       33  33 100 SE7       29.58R VSB 1/4 WCI  27
AITKIN         MIX PCPN  37  34  87 CALM      29.60S
PINE RIVER     DRIZZLE   34  34 100 E7        29.62F WCI  28
BRAINERD       CLOUDY    34  34 100 E3        29.59S FOG
STAPLES        CLOUDY    34  34 100 E3        29.57S FOG
LONG PRAIRIE   MIX PCPN  32  32 100 E5        29.56S VSB 1   WCI  27
LITTLE FALLS   CLOUDY    34  32  93 E6        29.59S FOG     WCI  29
LITCHFIELD     FOG       36  34  93 SE6       29.58S VSB<1/4
BUFFALO        CLOUDY    34  33  96 E6        29.61S FOG     WCI  29
MAPLE LAKE     CLOUDY    35  35 100 MISG      29.60S FOG
HUTCHINSON     FOG       34  34 100 E7        29.58F VSB 1/4 WCI  28
$$
MNZ037-044-045-052-053-201600-
   East Central Minnesota

CITY           SKY/WX    TMP DP  RH WIND       PRES   REMARKS
PRINCETON      CLOUDY    36  34  93 E6        29.61S FOG
MORA           RAIN      32  32 100 E5        29.64S WCI  27
CAMBRIDGE      RAIN      37  34  87 E5        29.61S VSB 1
RUSH CITY      LGT RAIN  34  34 100 E5        29.64S WCI  30
MOOSE LAKE     CLOUDY    36  34  93 CALM      29.62F FOG
HINCKLEY       CLOUDY    36  36 100 E5        29.64S FOG
CLOQUET        MIX PCPN  34  34 100 E6        29.64S VSB 3/4 WCI  29
MCGREGOR       CLOUDY    36  34  93 E5        29.63R
$$
MNZ071>073-080-081-089-090-097-098-201600-
   Southwest Minnesota

CITY           SKY/WX    TMP DP  RH WIND       PRES   REMARKS
MONTEVIDEO     CLOUDY    34  34 100 S7        29.55R FOG     WCI  28
GRANITE FALLS  CLOUDY    35  34  99 E9        29.55S FOG     WCI  27
CANBY          FOG       35  35 100 CALM      29.52S VSB 1
MARSHALL       CLOUDY    35  34  96 SE8       29.52F FOG     WCI  29
REDWOOD FALLS  FOG       34  32  92 SE9       29.55S VSB 1   WCI  27
OLIVIA         FOG       34  34 100 SE7       29.55F VSB 3/4 WCI  28
PIPESTONE      FOG       36  36 100 S6        29.50R VSB 1/2
WINDOM         FOG       36  34  93 SE5       29.53F VSB<1/4
WORTHINGTON    FOG       34  34 100 SE9       29.53S VSB 1/2 WCI  27
JACKSON        FOG       32  32 100 SE5       29.54S VSB 1/4 WCI  27
TRACY          CLOUDY    36  36 100 S6        29.52F FOG
SLAYTON        FOG       33  33 100 SE8       29.52S VSB 3/4 WCI  26
$$
MNZ065>067-074>077-082>085-091>093-201600-
   South Central Minnesota

CITY           SKY/WX    TMP DP  RH WIND       PRES   REMARKS
MANKATO        FOG       34  33  96 SE7       29.58F VSB 1   WCI  28
NEW ULM        FOG       34  34 100 SE8       29.56F VSB 1/2 WCI  27
ST JAMES       FOG       34  34 100 E6        29.57F VSB 3/4 WCI  29
FAIRMONT       FOG       33  33 100 SE6       29.57F VSB 1/4 WCI  28
GLENCOE        FOG       34  34 100 E6        29.58F VSB 1/4 WCI  29
FARIBAULT      FOG       34  34 100 E5        29.60F VSB 1/2 WCI  30
OWATONNA       FOG       34  34 100 SE7       29.59F VSB 1/2 WCI  28
WASECA         FOG       32  32 100 E7        29.59F VSB 1/2 WCI  26
ALBERT LEA     FOG       34  34 100 SE6       29.58F VSB<1/4 WCI  29
$$
MNZ078>079-086>088-094>096-201600-
   Southeast Minnesota

CITY           SKY/WX    TMP DP  RH WIND       PRES   REMARKS
ROCHESTER      FOG       33  33 100 SE6       29.61S VSB 1/4 WCI  28
RED WING       FOG       36  34  93 SE6       29.63S VSB 1
STANTON        CLOUDY    36  34  92 CALM      29.60F
DODGE CENTER   FOG       34  34 100 CALM      29.60S VSB 1/2
WINONA         CLOUDY    34  34 100 CALM      29.65S FOG
AUSTIN         FOG       34  32  93 SE6       29.59F VSB 1/4 WCI  29
PRESTON        FOG       33  32  97 E3        29.61F VSB 1
$$
ABBREVIATIONS USED IN REMARKS
   TC - TEMPERATURES IN CELSIUS
  WCI - WIND CHILL INDEX
   HX - HEAT INDEX
  VSB - VISIBILITY
$$




USA.gov is the U.S. government's official web portal to all federal, state and local government web resources and services.